When you browse on this site, cookies collect data to enhance your experience and personalize the content and advertising you see.
Visit our Privacy Policy to learn more. By continuing to use the site, you agree to this use of cookies and data.
  • In Hungary
  • List of Countries
  • For 7 days
  • Water Temperature
  • Weather Map
  • News
  • Weather Widgets
  • user-avatar
    Login

    Hourly Weather Fellbach

    Today, 15 November, Friday

    Time Temperature Precipitation Wind Pressure Humidity
    00:00 +3°C° 0 mm 1 mps 720 mmHg 91%
    01:00 +3°C° 0 mm 1 mps 720 mmHg 92%
    02:00 +2°C° 0 mm 2 mps 719 mmHg 92%
    03:00 +2°C° 0 mm 2 mps 719 mmHg 91%
    04:00 +1°C° 0 mm 2 mps 718 mmHg 91%
    05:00 +2°C° 0 mm 2 mps 718 mmHg 87%
    06:00 +2°C° 0 mm 2 mps 717 mmHg 84%
    07:00 +2°C° 0 mm 2 mps 717 mmHg 81%
    08:00 +3°C° 0 mm 2 mps 718 mmHg 78%
    09:00 +3°C° 0 mm 2 mps 719 mmHg 75%
    10:00 +4°C° 0 mm 2 mps 720 mmHg 71%
    11:00 +5°C° 0 mm 2 mps 720 mmHg 70%
    12:00 +6°C° 0 mm 2 mps 721 mmHg 69%
    13:00 +7°C° 0 mm 3 mps 722 mmHg 67%
    14:00 +6°C° 0 mm 2 mps 722 mmHg 71%
    15:00 +7°C° 0 mm 1 mps 722 mmHg 75%
    16:00 +6°C° 0 mm 1 mps 723 mmHg 79%
    17:00 +6°C° 0.1 mm 1 mps 723 mmHg 82%
    18:00 +5°C° 0.1 mm 1 mps 724 mmHg 86%
    19:00 +4°C° 0.1 mm 1 mps 724 mmHg 89%
    20:00 +4°C° 0 mm 1 mps 724 mmHg 89%
    21:00 +4°C° 0 mm 1 mps 725 mmHg 90%
    22:00 +4°C° 0 mm 1 mps 725 mmHg 90%
    23:00 +4°C° 0 mm 1 mps 725 mmHg 91%

    Tomorrow, 16 November, Saturday

    Time Temperature Precipitation Wind Pressure Humidity
    00:00 +3°C° 0 mm 0 mps 725 mmHg 91%
    01:00 +2°C° 0 mm 0 mps 725 mmHg 92%
    02:00 +2°C° 0 mm 0 mps 725 mmHg 92%
    03:00 +2°C° 0 mm 0 mps 725 mmHg 92%
    04:00 +1°C° 0 mm 0 mps 725 mmHg 93%
    05:00 +1°C° 0 mm 0 mps 725 mmHg 93%
    06:00 +1°C° 0 mm 0 mps 726 mmHg 93%
    07:00 +1°C° 0 mm 0 mps 726 mmHg 92%
    08:00 +2°C° 0 mm 0 mps 727 mmHg 89%
    09:00 +4°C° 0 mm 1 mps 727 mmHg 86%
    10:00 +5°C° 0 mm 1 mps 728 mmHg 83%
    11:00 +5°C° 0 mm 0 mps 728 mmHg 80%
    12:00 +6°C° 0 mm 0 mps 728 mmHg 77%
    13:00 +7°C° 0 mm 0 mps 728 mmHg 74%
    14:00 +7°C° 0 mm 0 mps 729 mmHg 76%
    15:00 +7°C° 0 mm 0 mps 729 mmHg 78%
    16:00 +6°C° 0 mm 0 mps 729 mmHg 81%
    17:00 +5°C° 0 mm 0 mps 729 mmHg 83%
    18:00 +6°C° 0 mm 1 mps 729 mmHg 86%
    19:00 +5°C° 0 mm 1 mps 730 mmHg 88%
    20:00 +5°C° 0 mm 1 mps 730 mmHg 89%
    21:00 +4°C° 0 mm 1 mps 729 mmHg 90%
    22:00 +4°C° 0 mm 1 mps 729 mmHg 90%
    23:00 +4°C° 0 mm 1 mps 729 mmHg 91%

    Day after tomorrow, 17 November, Sunday

    Time Temperature Precipitation Wind Pressure Humidity
    00:00 +4°C° 0 mm 1 mps 729 mmHg 92%
    01:00 +4°C° 0 mm 1 mps 729 mmHg 92%
    02:00 +4°C° 0 mm 1 mps 728 mmHg 93%
    03:00 +4°C° 0 mm 1 mps 727 mmHg 93%
    04:00 +4°C° 0 mm 1 mps 727 mmHg 94%
    05:00 +4°C° 0.5 mm 1 mps 726 mmHg 94%
    06:00 +3°C° 0.5 mm 2 mps 726 mmHg 94%
    07:00 +3°C° 0.5 mm 2 mps 725 mmHg 94%
    08:00 +3°C° 0.3 mm 2 mps 725 mmHg 93%
    09:00 +2°C° 0.3 mm 3 mps 724 mmHg 92%
    10:00 +2°C° 0.3 mm 3 mps 723 mmHg 91%
    11:00 +3°C° 0.1 mm 3 mps 723 mmHg 91%
    12:00 +3°C° 0.1 mm 3 mps 722 mmHg 91%
    13:00 +4°C° 0.1 mm 3 mps 721 mmHg 91%
    14:00 +4°C° 0.1 mm 3 mps 721 mmHg 92%
    15:00 +5°C° 0.1 mm 2 mps 721 mmHg 93%
    16:00 +4°C° 0.1 mm 2 mps 720 mmHg 94%
    17:00 +4°C° 0 mm 2 mps 721 mmHg 94%
    18:00 +4°C° 0 mm 2 mps 721 mmHg 94%
    19:00 +4°C° 0 mm 2 mps 721 mmHg 94%
    20:00 +4°C° 0 mm 2 mps 722 mmHg 94%
    21:00 +4°C° 0 mm 2 mps 722 mmHg 93%
    22:00 +4°C° 0 mm 2 mps 723 mmHg 93%
    23:00 +4°C° 0 mm 2 mps 723 mmHg 93%

    18 November, Monday

    Time Temperature Precipitation Wind Pressure Humidity
    00:00 +4°C° 0 mm 2 mps 723 mmHg 93%
    01:00 +4°C° 0 mm 2 mps 723 mmHg 92%
    02:00 +4°C° 0 mm 2 mps 723 mmHg 92%
    03:00 +4°C° 0 mm 2 mps 724 mmHg 92%
    04:00 +4°C° 0 mm 2 mps 724 mmHg 92%
    05:00 +4°C° 0 mm 2 mps 725 mmHg 91%
    06:00 +4°C° 0 mm 2 mps 725 mmHg 90%
    07:00 +3°C° 0 mm 3 mps 726 mmHg 89%
    08:00 +3°C° 0 mm 3 mps 726 mmHg 87%
    09:00 +3°C° 0 mm 4 mps 727 mmHg 85%
    10:00 +3°C° 0 mm 4 mps 727 mmHg 83%
    11:00 +2°C° 0.1 mm 5 mps 727 mmHg 81%
    12:00 +3°C° 0.1 mm 5 mps 727 mmHg 79%
    13:00 +3°C° 0.1 mm 5 mps 728 mmHg 78%
    14:00 +2°C° 0.1 mm 5 mps 728 mmHg 79%
    15:00 +3°C° 0.1 mm 4 mps 728 mmHg 79%
    16:00 +3°C° 0.1 mm 4 mps 728 mmHg 80%
    17:00 +3°C° 0 mm 4 mps 729 mmHg 81%
    18:00 +2°C° 0 mm 3 mps 729 mmHg 82%
    19:00 +2°C° 0 mm 3 mps 729 mmHg 83%
    20:00 +1°C° 0 mm 3 mps 730 mmHg 83%
    21:00 +1°C° 0 mm 3 mps 730 mmHg 83%
    22:00 +1°C° 0 mm 3 mps 730 mmHg 83%
    23:00 0°C° 0 mm 3 mps 731 mmHg 82%

    19 November, Tuesday

    Time Temperature Precipitation Wind Pressure Humidity
    00:00 +1°C° 0 mm 2 mps 731 mmHg 82%
    01:00 +1°C° 0 mm 2 mps 731 mmHg 82%
    02:00 +1°C° 0 mm 2 mps 731 mmHg 82%
    03:00 +1°C° 0 mm 2 mps 731 mmHg 83%
    04:00 +1°C° 0 mm 2 mps 731 mmHg 84%
    05:00 +1°C° 0 mm 2 mps 731 mmHg 84%
    06:00 +1°C° 0 mm 2 mps 731 mmHg 84%
    07:00 +1°C° 0 mm 2 mps 732 mmHg 85%
    08:00 +2°C° 0 mm 2 mps 732 mmHg 81%
    09:00 +3°C° 0 mm 2 mps 732 mmHg 78%
    10:00 +4°C° 0 mm 2 mps 732 mmHg 75%
    11:00 +5°C° 0 mm 2 mps 732 mmHg 71%
    12:00 +6°C° 0 mm 2 mps 731 mmHg 68%
    13:00 +6°C° 0 mm 2 mps 731 mmHg 64%
    14:00 +7°C° 0 mm 1 mps 731 mmHg 68%
    15:00 +6°C° 0 mm 1 mps 731 mmHg 72%
    16:00 +5°C° 0 mm 0 mps 731 mmHg 75%
    17:00 +4°C° 0 mm 0 mps 731 mmHg 79%
    18:00 +4°C° 0 mm 1 mps 731 mmHg 82%
    19:00 +3°C° 0 mm 1 mps 732 mmHg 86%
    20:00 +3°C° 0 mm 1 mps 732 mmHg 86%
    21:00 +1°C° 0 mm 0 mps 732 mmHg 86%
    22:00 +1°C° 0 mm 0 mps 732 mmHg 86%
    23:00 +2°C° 0 mm 1 mps 732 mmHg 86%

    20 November, Wednesday

    Time Temperature Precipitation Wind Pressure Humidity
    00:00 +2°C° 0 mm 1 mps 732 mmHg 86%
    01:00 +2°C° 0 mm 1 mps 731 mmHg 86%
    02:00 +2°C° 0 mm 1 mps 731 mmHg 86%
    03:00 +2°C° 0 mm 1 mps 731 mmHg 85%
    04:00 +2°C° 0 mm 1 mps 731 mmHg 84%
    05:00 +2°C° 0 mm 1 mps 731 mmHg 84%
    06:00 +2°C° 0 mm 1 mps 731 mmHg 83%
    07:00 +1°C° 0 mm 1 mps 731 mmHg 82%
    08:00 +2°C° 0 mm 1 mps 731 mmHg 78%
    09:00 +4°C° 0 mm 1 mps 731 mmHg 74%
    10:00 +5°C° 0 mm 1 mps 731 mmHg 70%
    11:00 +6°C° 0 mm 1 mps 730 mmHg 66%
    12:00 +7°C° 0 mm 1 mps 730 mmHg 61%
    13:00 +8°C° 0 mm 1 mps 730 mmHg 57%
    14:00 +7°C° 0 mm 1 mps 729 mmHg 61%
    15:00 +6°C° 0 mm 1 mps 729 mmHg 66%
    16:00 +6°C° 0 mm 1 mps 729 mmHg 70%
    17:00 +5°C° 0 mm 1 mps 729 mmHg 70%
    18:00 +4°C° 0 mm 1 mps 729 mmHg 71%
    19:00 +4°C° 0 mm 1 mps 729 mmHg 71%
    20:00 +4°C° 0 mm 1 mps 729 mmHg 71%
    21:00 +4°C° 0 mm 1 mps 729 mmHg 70%
    22:00 +4°C° 0 mm 1 mps 730 mmHg 70%
    23:00 +4°C° 0 mm 1 mps 729 mmHg 71%
    Show more